Location: Erlenbrunn
(49.1717°N, 7.6142°E)
Time: 13:08:39
(UTC+00:00)

SKYMED 3 - Visible Passes

Search period start: 20 April 2021 00:00
Search period end: 30 April 2021 00:00
Orbit: 621 x 623 km, 97.9° (Epoch: 20 April)

Date Brightness Start Highest point End Pass type
(mag) Time Alt. Az. Time Alt. Az. Time Alt. Az.
20 Apr 7.9 03:15:29 10° E 03:18:20 17° ENE 03:21:12 10° NNE visible
21 Apr 7.4 03:32:41 10° ESE 03:36:11 24° ENE 03:39:42 10° N visible
22 Apr 6.7 03:50:10 10° SE 03:54:05 34° ENE 03:58:01 10° N visible
23 Apr 7.9 19:04:04 10° NNW 19:07:08 19° WNW 19:10:12 10° WSW visible
24 Apr 8.4 02:53:23 10° ENE 02:54:38 11° NE 02:55:52 10° NE visible
24 Apr 8.2 19:22:47 10° NNW 19:24:57 14° WNW 19:27:08 10° W visible
25 Apr 8.0 03:09:51 10° E 03:12:26 16° ENE 03:15:00 10° NNE visible
26 Apr 7.6 03:26:57 10° ESE 03:30:16 22° ENE 03:33:35 10° NNE visible
29 Apr 8.1 19:16:33 10° NNW 19:19:04 15° WNW 19:21:35 10° W visible
